Location: Paderno d�Adda
(45.6667°N, 9.4333°E)
Time: 06:02:30
(UTC+00:00)

Cosmos 1125 Rocket - Pass Details

Date: 23 January 2021
Orbit: 757 x 781 km, 74.0° (Epoch: 05 March)

Event Time Altitude Azimuth Distance (km) Brightness Sun altitude
Exits shadow 05:45:00 - 337° (NNW) 3,139 6.3 -11.9°
Reaches altitude 10° 05:47:04 10° 337° (NNW) 2,337 5.6 -11.5°
Maximum altitude 05:52:23 83° 251° (WSW) 791 3.5 -10.7°
Drops below altitude 10° 05:57:41 10° 164° (SSE) 2,328 6.5 -9.8°
Sets 06:00:03 0° 163° (SSE) 3,251 7.3 -9.4°
